Home > Weather > Surgut > Past weeks

Flag for Russia Past Weather in Surgut, Russia — Yesterday and Last 2 Weeks

Now
34 °F

Snow flurries. Broken clouds.


Feels Like: 23 °F
Forecast: 35 / 55 °F
Wind: 17 mph from Northwest

Location: Surgut Airport

Current Time: Jun 1, 2016 at 8:41:41 AM

Latest Report: Jun 1, 2016 at 8:00 AM


Visibility: 1 mi

Pressure: 29.59 "Hg

Humidity: 100%

Dew Point: 34 °F

Location of SurgutLocation

Past Weather in Surgut — Graph

°F

Surgut Temperature Yesterday

Maximum temperature yesterday: 41 °F (at 12:30 PM)
Minimum temperature yesterday: 34 °F (at 11:30 PM)
Average temperature yesterday: 37 °F

High & Low Weather Summary for the Past Weeks

 TemperatureHumidityPressure
High84 °F (May 24, 1:00 PM)100% (May 24, 2:30 AM)30.33 "Hg (May 24, 2:30 AM)
Low34 °F (May 17, 7:00 AM)18% (May 20, 1:00 PM)29.33 "Hg (May 30, 12:00 AM)
Average57 °F61%29.98 "Hg
* Reported May 17 7:00 AM — Jun 1 7:30 AM, Surgut, Weather by CustomWeather, © 2016

Note: Actual official high and low records may vary slightly from our data, if they occured in-between our weather recording intervals... More about our weather records

Advertising

Surgut Weather History for the Previous 24 Hours

Scroll right to see more
 ConditionsComfort  
Time TempWeatherWind HumidityBarometerVisibility
7:30 AM
Wed, Jun 1
34 °FSnow showers. Broken clouds.20 mph100%29.59 "Hg1 mi
7:00 AM34 °FSnow flurries. Broken clouds.15 mph100%29.56 "Hg3 mi
6:30 AM34 °FSnow flurries. Broken clouds.15 mph100%29.56 "Hg1 mi
6:00 AM34 °FSnow flurries. Broken clouds.17 mph100%29.56 "Hg3 mi
5:30 AM34 °FSnow flurries. Broken clouds.20 mph100%29.56 "Hg1 mi
5:00 AM34 °FSnow flurries. Broken clouds.15 mph100%29.56 "Hg3 mi
4:30 AM34 °FSnow flurries. Broken clouds.15 mph100%29.53 "Hg3 mi
4:00 AM36 °FSprinkles. Broken clouds.15 mph93%29.53 "Hg4 mi
3:30 AM34 °FSprinkles. Broken clouds.20 mph100%29.53 "Hg4 mi
3:00 AM36 °FSprinkles. Broken clouds.15 mph93%29.53 "Hg4 mi
2:30 AM34 °FSprinkles. Partly cloudy.20 mph100%29.53 "Hg3 mi
2:00 AM34 °FSprinkles. Partly cloudy.15 mph100%29.50 "Hg2 mi
1:30 AM34 °FSprinkles. Partly cloudy.15 mph100%29.50 "Hg2 mi
1:00 AM34 °FSprinkles. Partly cloudy.10 mph100%29.50 "Hg3 mi
12:30 AM34 °FSprinkles. Partly cloudy.17 mph100%29.50 "Hg3 mi
12:00 AM34 °FSprinkles. Partly cloudy.13 mph100%29.50 "Hg2 mi
11:30 PM
Tue, May 31
34 °FSprinkles. Partly cloudy.17 mph100%29.50 "Hg3 mi
11:00 PM36 °FSprinkles. Partly cloudy.17 mph100%29.50 "Hg4 mi
10:30 PM36 °FSprinkles. Partly cloudy.17 mph100%29.53 "Hg4 mi
10:00 PM36 °FSprinkles. Partly cloudy.17 mph100%29.53 "Hg4 mi
9:30 PM36 °FSprinkles. Partly cloudy.10 mph100%29.53 "Hg4 mi
9:00 PM36 °FSprinkles. Broken clouds.13 mph100%29.53 "Hg4 mi
8:30 PM37 °FSprinkles. Broken clouds.13 mph100%29.53 "Hg4 mi
8:00 PM37 °FSprinkles. Broken clouds.13 mph100%29.53 "Hg4 mi
7:30 PM37 °FSprinkles. Broken clouds.20 mph100%29.53 "Hg4 mi
7:00 PM37 °FSprinkles. Broken clouds.13 mph100%29.53 "Hg4 mi
6:30 PM37 °FSprinkles. Broken clouds.22 mph100%29.53 "Hg4 mi
6:00 PM37 °FSprinkles. Broken clouds.13 mph100%29.53 "Hg4 mi
5:30 PM37 °FBroken clouds.13 mph100%29.53 "Hg4 mi
5:00 PM37 °FSprinkles. Broken clouds.22 mph100%29.53 "Hg4 mi
4:30 PM37 °FSprinkles. Broken clouds.13 mph100%29.53 "Hg3 mi
4:00 PM37 °FSprinkles. Broken clouds.13 mph100%29.53 "Hg4 mi
3:30 PM39 °FSprinkles. Broken clouds.15 mph100%29.50 "Hg4 mi
3:00 PM41 °FSprinkles. Scattered clouds.15 mph93%29.50 "Hg4 mi
2:30 PM39 °FSprinkles. Scattered clouds.17 mph93%29.50 "Hg4 mi
2:00 PM41 °FScattered clouds.17 mph81%29.50 "Hg4 mi
1:30 PM41 °FScattered clouds.15 mph87%29.47 "Hg4 mi
1:00 PM41 °FSprinkles. Scattered clouds.17 mph93%29.47 "Hg4 mi
12:30 PM41 °FScattered clouds.17 mph87%29.47 "Hg4 mi
12:00 PM39 °FBroken clouds.17 mph100%29.47 "Hg4 mi
11:30 AM39 °FBroken clouds.17 mph100%29.45 "Hg4 mi
11:00 AM39 °FBroken clouds.17 mph100%29.45 "Hg4 mi
10:30 AM37 °FSprinkles. Broken clouds.17 mph100%29.42 "Hg2 mi
10:00 AM39 °FSprinkles. Broken clouds.20 mph93%29.42 "Hg3 mi
9:30 AM37 °FSprinkles. Broken clouds.17 mph100%29.42 "Hg4 mi
9:00 AM39 °FSprinkles. Broken clouds.17 mph93%29.39 "Hg4 mi
8:30 AM39 °FSprinkles. Broken clouds.20 mph100%29.39 "Hg4 mi
8:00 AM37 °FSprinkles. Broken clouds.17 mph100%29.39 "Hg4 mi
Weather by CustomWeather, © 2016

See weather overviewHow to use our weather pages